Preview of NWS' New Version of Forecast
This preview is not operational and should not be used for support decisions.

Regional Weather Roundup (RWR)

Issued by Philadelphia/Mt Holly (PHI)

                            
000
ASUS41 KPHI 181012
RWRPHI

REGIONAL WEATHER ROUNDUP
NATIONAL WEATHER SERVICE MOUNT HOLLY NJ
600 AM EDT WED SEP 18 2019

NOTE:  "FAIR" INDICATES FEW OR NO CLOUDS BELOW 12,000 FEET WITH NO
SIGNIFICANT WEATHER AND/OR OBSTRUCTIONS TO VISIBILITY.

 * = STATION DOES NOT REPORT PRECIPITATION (E.G. RAIN, SNOW, ETC.) 
        OR FOG.

NJZ015>026-181100-
SOUTHERN NEW JERSEY
  
CITY           SKY/WX    TMP DP  RH WIND       PRES   REMARKS
POMONA         FAIR      53  49  86 NW3       30.16R                  
WILDWOOD*      FAIR      57  53  86 N5        30.15R                  
MILLVILLE      FAIR      52  49  89 NW3       30.16R                  
WRIGHTSTOWN    FAIR      53  51  91 NW5       30.17R                  
MOUNT HOLLY    FAIR      53  51  93 CALM      30.17R                  
TRENTON        FAIR      54  46  74 N5        30.18R                  

$$
NJZ001>014-181100-
NORTHERN NEW JERSEY
  
CITY           SKY/WX    TMP DP  RH WIND       PRES   REMARKS
SUSSEX         FAIR      45  43  93 CALM      30.22R                  
ANDOVER*         N/A     49  47  93 CALM      30.22R                  
MORRISTOWN     MOCLDY    46  46 100 CALM      30.20R                  
NEWARK         MOCLDY    58  48  69 N9        30.18R                  
TETERBORO      MOCLDY    58  48  69 N7        30.19R                  
CALDWELL       MOCLDY    56  49  77 NE3       30.21R                  
SOMERVILLE     MOCLDY    49  47  93 NW3       30.18R                  
ALLAIRE*       FAIR      57  54  89 N7        30.18R                  
TOMS RIVER*    FAIR      51  32  48 CALM      30.17R                  

$$
PAZ043-044-047-054-055-060>062-066>071-181100-
EASTERN PENNSYLVANIA
  
CITY           SKY/WX    TMP DP  RH WIND       PRES   REMARKS
PHILADELPHIA   FAIR      60  50  69 N5        30.17R                  
NORTH PHILA    FAIR      56  48  74 CALM      30.19R                  
BLUE BELL*     FAIR      48  48  98 CALM      30.18S FOG              
DOYLESTOWN     FAIR      54  46  74 NE5       30.18R                  
QUAKERTOWN*    CLEAR     48  48 100 CALM      30.20                   
PERKASIE*      FAIR      46  46 100 CALM      30.20R                  
POTTSTOWN      FAIR      48  48 100 CALM      30.20R                  
LANCASTER      FAIR      54  46  74 E3        30.18R                  
COATESVILLE    FAIR      54  48  82 N3        30.19S                  
WEST CHESTER   FAIR      54  46  76 CALM      30.18R                  
READING        FAIR      54  50  86 N6        30.18R                  
ALLENTOWN      FAIR      51  45  79 N3        30.20R                  
QN CITY/ALNTWN FAIR      54  46  76 NE5       30.21R                  
MOUNT POCONO   FAIR      47  43  86 N5        30.22R                  
HAZLETON       FAIR      41  39  93 CALM      30.25R                  
LEHIGHTON      FAIR      41  41 100 CALM      30.23R                  
WILKES BARRE   FAIR      48  45  89 E5        30.24R                  

$$
DEZALL-MDZ008-012-015-019-020-181100-
DELAWARE AND EASTERN MARYLAND
  
CITY           SKY/WX    TMP DP  RH WIND       PRES   REMARKS
WILMINGTON     FAIR      55  53  93 N3        30.17R                  
DOVER          FAIR      54  51  89 NW5       30.15R                  
CHESWOLD       SUNNY     52  50  93 CALM      30.16R                  
GEORGETOWN     FAIR      55  53  93 CALM      30.15R                  
EASTON         CLEAR     55  54  94 CALM      30.18R                  
STEVENSVILLE   FAIR      57  57 100 CALM      30.15S                  
ABERDEEN       CLEAR     50  50 100 CALM      30.16                   
PATUXENT       FAIR      64  54  69 NE7       30.14                   
OCEAN CITY     MOCLDY    67  53  61 NE7       30.13R                  
WALLOPS ISLAND FAIR      58  53  84 N7        30.13R                  
CAMBRIDGE      CLEAR     54  52  94 CALM      30.14S                  
SALISBURY      FAIR      55  51  86 CALM      30.14R                  

$$
PAZ001-021-NYZ056-072-MDZ011-DCZ001-181100-
OTHER NEARBY LOCATIONS
  
CITY           SKY/WX    TMP DP  RH WIND       PRES   REMARKS
HARRISBURG     FAIR      58  47  66 NW5       30.18R                  
STATE COLLEGE  CLEAR     50  50 100 E3        30.23R                  
WILLIAMSPORT   FAIR      50  47  89 CALM      30.23R                  
BINGHAMTON     FAIR      46  43  89 NE5       30.25R                  
NEW YORK CITY  MOCLDY    61  53  75 NE8       30.21R                  
BALTIMORE      FAIR      58  55  90 CALM      30.15R                  
WASHINGTON DC  FAIR      63  58  83 NE6       30.16R                  

$$